[Iaude] MPEC F18: 2024 FF [a=1.66,e=0.39,i=32.7,H=23.0]

mpec at cfa.harvard.edu mpec at cfa.harvard.edu
Mon Mar 18 16:57:57 EDT 2024


M.P.E.C. 2024-F18                                Issued 2024 March 18, 20:56 UT

     The Minor Planet Electronic Circulars contain information on unusual
         minor planets, routine data on comets and natural satellites,
         and occasional editorial announcements.  They are published
    on behalf of Division F of the International Astronomical Union by the
          Minor Planet Center, Smithsonian Astrophysical Observatory,
                          Cambridge, MA 02138, U.S.A.
			  
             Prepared using the Tamkin Foundation Computer Network

                              MPC at CFA.HARVARD.EDU
            URL https://www.minorplanetcenter.net/    ISSN 1523-6714

                                    2024 FF                                     


Observations:
     K24F00F*KC2024 03 17.14126 09 18 39.27 -03 09 53.1          19.5 GVEF018W94
     K24F00F KC2024 03 17.14742 09 18 42.44 -03 07 59.7          19.6 GVEF018W94
     K24F00F KC2024 03 17.15357 09 18 45.57 -03 06 08.8          19.1 GVEF018W94
     K24F00F KC2024 03 17.23949 09 19 30.05 -02 40 09.1          18.8 GVEF018W95
     K24F00F KC2024 03 17.24488 09 19 32.82 -02 38 32.5          19.3 GVEF018W95
     K24F00F KC2024 03 17.25024 09 19 35.63 -02 36 54.5          19.2 GVEF018W95
     K24F00F KB2024 03 17.79054609 24 30.802+00 03 27.61         19.7 GXEF018K74
     K24F00F KB2024 03 17.80497709 24 38.227+00 07 44.72         19.5 GXEF018K74
     K24F00F KB2024 03 17.87149209 25 12.94 +00 27 32.0          19.8 GXEF018I93
     K24F00F KB2024 03 17.87870209 25 16.58 +00 29 40.3          18.9 GXEF018I93
     K24F00F KB2024 03 17.88590109 25 20.24 +00 31 47.9          20.0 GXEF018I93
     K24F00F |C2024 03 18.05534009 26 50.810+01 23 18.30         19.5 GVEF018807
     K24F00F |C2024 03 18.05754009 26 51.940+01 23 57.40         19.6 GVEF018807
     K24F00F |C2024 03 18.05974009 26 53.050+01 24 36.10         19.6 GVEF018807
     K24F00F |C2024 03 18.06194009 26 54.130+01 25 14.70         19.5 GVEF018807
     K24F00F KC2024 03 18.06196709 26 55.13 +01 23 49.4          19.5 GVEF018H21
     K24F00F KC2024 03 18.06389709 26 56.11 +01 24 23.5          19.5 GVEF018H21
     K24F00F KC2024 03 18.06582509 26 57.08 +01 24 57.5          20.2 GVEF018H21
     K24F00F KC2024 03 18.06775309 26 58.06 +01 25 31.5          20.3 GVEF018H21
     K24F00F KC2024 03 18.06968209 26 59.02 +01 26 05.5          19.8 GVEF018H21
     K24F00F KB2024 03 18.49060 09 30 39.26 +03 28 43.2          19.9 GXEF018Q06
     K24F00F KB2024 03 18.49694 09 30 42.34 +03 30 33.2          19.7 GXEF018Q06
     K24F00F KB2024 03 18.50318 09 30 45.45 +03 32 21.1          19.2 GXEF018Q06
     K24F00F KB2024 03 18.73621 09 32 48.24 +04 38 56.2          19.9 GXEF018M45
     K24F00F KB2024 03 18.74031 09 32 50.26 +04 40 05.4          19.9 GXEF018M45
     K24F00F KB2024 03 18.74380 09 32 52.07 +04 41 05.8          19.8 GXEF018M45
     K24F00F KB2024 03 18.78681 09 33 14.60 +04 53 20.9          20.2 VZEF018C95
     K24F00F KB2024 03 18.79429 09 33 18.39 +04 55 27.8          19.9 VZEF018C95
     K24F00F KC2024 03 18.82315 09 33 32.51 +05 03 36.5                VEF018204
     K24F00F KC2024 03 18.83406 09 33 37.90 +05 06 42.4          19.9 GVEF018204

Observer details:
204 Schiaparelli Observatory.  Observer L. Buzzi.  0.84-m f/3.5 reflector +
    CMO.
807 Cerro Tololo Observatory, La Serena.  Observers T. Linder, R. Holmes.
    0.61-m f/6.8 Ritchey-Chretien + CCD.
C95 SATINO Remote Observatory, Haute Provence.  Observers D. Husar, B.
    Haeusler, C. Gerhard.  Measurer D. Husar.  0.30-m f/5.8 reflector + CMO.
H21 Astronomical Research Observatory, Westfield.  Observer R. Holmes.
    Measurers T. Linder, R. Holmes, L. Horn.  0.76-m f/3.0 astrograph + CCD.
I93 St Pardon de Conques.  Observer F. Losse.  0.40-m f/3.7 reflector + CCD.
K74 Muensterschwarzach Observatory, Schwarzach.  Observer C. Gerhard.  0.30-m
    f/3.75 reflector + CMO.
M45 Starhopper Observatory, Sfantu Gheorghe.  Observer F. Ursache.  0.41-m
    f/7.5 reflector + CMO.
Q06 Tarui Observatory, Tarui.  Observer H. Watanabe.  0.35-m f/1.9 Schmidt-
    Cassegrain + CMO.
W94 MAP, San Pedro de Atacama.  Observers A. Maury, G. Attard.  Measurers A.
    Maury, G. Attard, D. Parrott, F. Signoret, J.-M. Mari.  0.36-m f/1.9
    Schmidt astrograph + CCD.
W95 Observatorio Panameno, San Pedro de Atacama.  Observers A. Maury, G.
    Attard, F. Signoret.  Measurers A. Maury, G. Attard, D. Parrott, J.-M.
    Mari, F. Signoret.  0.40-m f/3.8  reflector + CCD.

Orbital elements:
2024 FF                                                  Earth MOID = 0.0998 AU
Epoch 2024 Mar. 31.0 TT = JDT 2460400.5                 MPC                     
M  23.11595              (2000.0)            P               Q                  
n   0.45986744     Peri.  317.29747     -0.69773067     -0.71555930             
a   1.6623186      Node   176.41051     +0.71045254     -0.68514443             
e   0.3866660      Incl.   32.74511     -0.09181012     +0.13620574             
P   2.14           H   23.00          G   0.15           U   8                  
Residuals in seconds of arc
240317 W94  0.3-  0.6-    240317 I93  0.2-  0.6-    240318 Q06  0.3+  0.0
240317 W94  0.2-  0.9+    240318 807  0.2-  0.1-    240318 Q06  0.7-  0.3+
240317 W94  0.5-  0.1+    240318 807  0.2+  0.1+    240318 Q06  0.6-  0.3+
240317 W95  0.3+  0.7+    240318 807  0.3+  0.0     240318 M45  0.5+  1.6+
240317 W95  0.3-  0.4-    240318 807  0.1-  0.2-    240318 M45  0.0   0.8+
240317 W95  0.2-  0.4+    240318 H21  0.3+  0.1+    240318 M45  1.0+  1.5+
240317 K74  0.0   0.0     240318 H21  0.3+  0.1+    240318 C95  0.0   1.3+
240317 K74  0.1+  0.0     240318 H21  0.1+  0.1+    240318 C95  0.8+  0.7+
240317 I93  0.3+  0.6-    240318 H21  0.2+  0.1+    240318 204  0.2+  0.3-
240317 I93  0.1-  0.4-    240318 H21  0.1-  0.1+    240318 204  0.3-  0.0

Ephemeris:
2024 FF                  a,e,i = 1.66, 0.39, 33                  q = 1.0196
Date    TT    R. A. (2000) Decl.     Delta      r    Elong.  Phase     V
2024 02 17    05 20 44.9 -64 46 40   0.3144  1.0224    87.3    74.8    23.2
...
2024 03 03    07 04 32.4 -53 30 50   0.1815  1.0462   102.6    67.6    21.8
...
2024 03 11    08 20 21.7 -32 21 25   0.1262  1.0678   123.2    51.1    20.5
...
2024 03 17    09 17 23.8 -03 53 21   0.1143  1.0876   142.2    34.1    19.9
2024 03 18    09 26 19.9 +01 06 08   0.1161  1.0911   143.8    32.6    19.9
2024 03 19    09 35 02.1 +05 54 03   0.1189  1.0948   144.8    31.6    19.9
...
2024 03 25    10 21 42.5 +28 00 38   0.1533  1.1181   139.4    35.5    20.6
...
2024 04 02    11 08 51.6 +41 57 04   0.2253  1.1526   128.2    42.9    21.7
...
2024 04 17    12 03 54.7 +49 09 00   0.3842  1.2255   116.7    47.0    23.1

A. U. Tomatic                (C) Copyright 2024 MPC           M.P.E.C. 2024-F18





More information about the Iaude mailing list